CW1020 Weather Reports


time (UTC)temp
C
wind
direction
speed
KPH
gust
KPH
rain 1hr
cm
rain 24hr
cm
rain mn
cm
humidity
%
barometer
mb
20260509215003 23 319 19.3 32.2 0.00 0.00 0.00 42 1016.7
20260509213503 23 320 17.7 30.6 0.00 0.00 0.00 43 1016.8
20260509213004 23 320 17.7 29.0 0.00 0.00 0.00 44 1016.8
20260509212502 23 320 17.7 27.4 0.00 0.00 0.00 43 1016.9
20260509212002 23 321 17.7 30.6 0.00 0.00 0.00 43 1017.0
20260509211002 23 322 17.7 29.0 0.00 0.00 0.00 44 1016.9
20260509210502 23 321 17.7 27.4 0.00 0.00 0.00 44 1017.0
20260509210003 23 319 16.1 24.1 0.00 0.00 0.00 45 1017.0
20260509205503 23 318 16.1 20.9 0.00 0.00 0.00 44 1017.1
20260509205003 23 317 16.1 25.7 0.00 0.00 0.00 44 1017.0
20260509204502 23 323 16.1 29.0 0.00 0.00 0.00 44 1017.1
20260509204002 23 321 14.5 32.2 0.00 0.00 0.00 44 1017.1
20260509203503 23 322 12.9 25.7 0.00 0.00 0.00 43 1017.1
20260509203002 23 319 12.9 20.9 0.00 0.00 0.00 44 1017.3
20260509202502 23 323 14.5 24.1 0.00 0.00 0.00 45 1017.3
20260509202002 23 320 14.5 24.1 0.00 0.00 0.00 44 1017.2
20260509201502 23 323 14.5 22.5 0.00 0.00 0.00 45 1017.2
20260509200503 22 319 16.1 20.9 0.00 0.00 0.00 45 1017.3
20260509200002 22 317 16.1 27.4 0.00 0.00 0.00 45 1017.2
20260509195502 23 321 16.1 25.7 0.00 0.00 0.00 44 1017.4
20260509195002 22 319 16.1 27.4 0.00 0.00 0.00 46 1017.4
20260509194003 22 320 17.7 24.1 0.00 0.00 0.00 46 1017.4
20260509193503 22 322 17.7 25.7 0.00 0.00 0.00 46 1017.5
20260509193003 22 318 17.7 25.7 0.00 0.00 0.00 46 1017.6
20260509192002 22 316 16.1 24.1 0.00 0.00 0.00 46 1017.6
20260509191502 22 318 16.1 25.7 0.00 0.00 0.00 46 1017.6
20260509191002 22 320 16.1 22.5 0.00 0.00 0.00 46 1017.7
20260509190502 22 324 14.5 25.7 0.00 0.00 0.00 45 1017.7
20260509190002 22 325 12.9 24.1 0.00 0.00 0.00 45 1017.7
20260509185502 22 323 11.3 19.3 0.00 0.00 0.00 46 1017.7
20260509185004 22 329 11.3 22.5 0.00 0.00 0.00 46 1017.8
20260509184502 22 325 11.3 17.7 0.00 0.00 0.00 45 1017.9
20260509184002 22 320 9.7 20.9 0.00 0.00 0.00 45 1018.0
20260509183502 22 325 9.7 16.1 0.00 0.00 0.00 45 1018.0
20260509182502 21 324 9.7 16.1 0.00 0.00 0.00 46 1018.2
20260509182002 21 323 11.3 19.3 0.00 0.00 0.00 44 1018.2
20260509181503 21 318 12.9 20.9 0.00 0.00 0.00 45 1018.3
20260509181002 21 322 11.3 19.3 0.00 0.00 0.00 45 1018.0
20260509180503 21 319 11.3 19.3 0.00 0.00 0.00 45 1018.1
20260509180003 21 323 11.3 17.7 0.00 0.00 0.00 45 1018.1
20260509175503 20 322 12.9 19.3 0.00 0.00 0.00 44 1018.1
20260509175002 20 322 12.9 22.5 0.00 0.00 0.00 46 1018.1
20260509174503 20 323 11.3 20.9 0.00 0.00 0.00 45 1018.1
20260509173502 20 316 14.5 20.9 0.00 0.00 0.00 47 1018.1
20260509173002 20 320 12.9 22.5 0.00 0.00 0.00 47 1018.1
20260509172503 20 317 11.3 19.3 0.00 0.00 0.00 47 1018.1
20260509172002 20 321 11.3 22.5 0.00 0.00 0.00 47 1018.1
20260509171002 20 319 11.3 20.9 0.00 0.00 0.00 48 1018.0
20260509170502 19 316 9.7 19.3 0.00 0.00 0.00 47 1018.0
20260509170003 19 319 11.3 16.1 0.00 0.00 0.00 47 1018.0
20260509165502 19 320 12.9 19.3 0.00 0.00 0.00 47 1018.1
20260509165002 19 314 12.9 17.7 0.00 0.00 0.00 47 1018.2
20260509164503 19 319 12.9 24.1 0.00 0.00 0.00 47 1018.2
20260509164002 19 320 9.7 19.3 0.00 0.00 0.00 47 1018.1
20260509163502 18 323 8.0 17.7 0.00 0.00 0.00 48 1018.2
20260509163003 18 319 8.0 16.1 0.00 0.00 0.00 47 1018.2
20260509162502 18 321 8.0 12.9 0.00 0.00 0.00 46 1018.3
20260509162002 18 327 6.4 14.5 0.00 0.00 0.00 47 1018.2
20260509161502 18 329 6.4 14.5 0.00 0.00 0.00 47 1018.2
20260509161004 18 319 8.0 12.9 0.00 0.00 0.00 48 1018.2
20260509160502 18 315 6.4 14.5 0.00 0.00 0.00 48 1018.2
20260509160003 18 311 8.0 14.5 0.00 0.00 0.00 48 1018.2
20260509155502 18 319 8.0 9.7 0.00 0.00 0.00 49 1018.2
20260509155003 17 321 9.7 16.1 0.00 0.00 0.00 50 1018.2
20260509154503 17 315 9.7 12.9 0.00 0.00 0.00 51 1018.2
20260509154002 17 322 11.3 19.3 0.00 0.00 0.00 50 1018.2
20260509153503 17 320 11.3 17.7 0.00 0.00 0.00 51 1018.3
20260509152502 17 321 8.0 14.5 0.00 0.00 0.00 51 1018.3
20260509151504 16 322 4.8 12.9 0.00 0.00 0.00 55 1018.2
20260509151003 16 322 3.2 8.0 0.00 0.00 0.00 57 1018.2
20260509150502 16 316 1.6 6.4 0.00 0.00 0.00 58 1018.2
20260509150003 15 306 0.0 4.8 0.00 0.00 0.00 59 1018.2
20260509145003 15 299 0.0 1.6 0.00 0.00 0.00 58 1018.2
20260509144503 15 0 0.0 0.0 0.00 0.00 0.00 58 1018.2
20260509144002 15 0 0.0 0.0 0.00 0.00 0.00 58 1018.3
20260509143503 15 0 0.0 0.0 0.00 0.00 0.00 57 1018.3
20260509143003 15 0 0.0 0.0 0.00 0.00 0.00 56 1018.4
20260509142502 15 0 0.0 0.0 0.00 0.00 0.00 55 1018.4
20260509142004 15 0 0.0 0.0 0.00 0.00 0.00 56 1018.4
20260509141503 15 0 0.0 0.0 0.00 0.00 0.00 57 1018.3
20260509141002 14 0 0.0 0.0 0.00 0.00 0.00 58 1018.3
20260509140502 13 0 0.0 0.0 0.00 0.00 0.00 59 1018.2
20260509140002 13 0 0.0 0.0 0.00 0.00 0.00 60 1018.3
20260509135502 13 0 0.0 0.0 0.00 0.00 0.00 61 1018.2
20260509135003 13 0 0.0 0.0 0.00 0.00 0.00 61 1018.2
20260509134502 12 0 0.0 0.0 0.00 0.00 0.00 62 1018.3
20260509134002 12 0 0.0 0.0 0.00 0.00 0.00 64 1018.3
20260509133503 11 0 0.0 0.0 0.00 0.00 0.00 65 1018.3
20260509132502 11 0 0.0 0.0 0.00 0.00 0.00 65 1018.4
20260509132003 11 0 0.0 0.0 0.00 0.00 0.00 65 1018.3
20260509131503 11 0 0.0 0.0 0.00 0.00 0.00 64 1018.3
20260509131003 11 0 0.0 0.0 0.00 0.00 0.00 64 1018.3
20260509130503 11 0 0.0 0.0 0.00 0.00 0.00 65 1018.3
20260509125503 11 0 0.0 0.0 0.00 0.00 0.00 64 1018.3
20260509125003 11 0 0.0 0.0 0.00 0.00 0.00 63 1018.2
20260509124502 11 0 0.0 0.0 0.00 0.00 0.00 62 1018.1
20260509124003 11 0 0.0 0.0 0.00 0.00 0.00 62 1018.1
20260509123503 11 0 0.0 0.0 0.00 0.00 0.00 61 1018.0
20260509123002 12 299 1.6 3.2 0.00 0.00 0.00 61 1018.1
20260509122503 11 298 0.0 3.2 0.00 0.00 0.00 61 1018.0
20260509122003 12 292 0.0 3.2 0.00 0.00 0.00 59 1018.0
20260509121503 12 0 0.0 0.0 0.00 0.00 0.00 59 1018.0
20260509121003 12 0 1.6 0.0 0.00 0.00 0.00 60 1017.9
20260509120003 12 289 0.0 3.2 0.00 0.00 0.00 58 1017.8
20260509115504 12 289 0.0 1.6 0.00 0.00 0.00 58 1017.9
20260509115003 12 0 0.0 0.0 0.00 0.00 0.00 57 1017.8
20260509114503 12 0 0.0 0.0 0.00 0.00 0.00 57 1017.9
20260509114003 13 289 0.0 3.2 0.00 0.00 0.00 56 1017.9
20260509113503 13 292 0.0 1.6 0.00 0.00 0.00 57 1017.9
20260509113003 12 291 0.0 3.2 0.00 0.00 0.00 57 1017.9
20260509112503 12 289 0.0 1.6 0.00 0.00 0.00 56 1017.8
20260509112003 13 290 1.6 3.2 0.00 0.00 0.00 55 1017.9
20260509111002 13 278 0.0 3.2 0.00 0.00 0.00 54 1018.0
20260509110503 13 274 1.6 3.2 0.00 0.00 0.00 55 1018.1
20260509110003 13 268 1.6 3.2 0.00 0.00 0.00 54 1018.0
20260509105003 13 262 1.6 3.2 0.00 0.00 0.00 55 1018.1
20260509104502 12 249 1.6 4.8 0.00 0.00 0.00 55 1018.2
20260509103503 12 253 0.0 3.2 0.00 0.00 0.00 54 1018.2
20260509103003 13 0 0.0 0.0 0.00 0.00 0.00 54 1018.1
20260509102503 14 0 0.0 0.0 0.00 0.00 0.00 51 1018.1
20260509101502 15 233 3.2 6.4 0.00 0.00 0.00 50 1018.1
20260509101003 15 234 1.6 11.3 0.00 0.00 0.00 49 1018.2
20260509100502 15 228 1.6 4.8 0.00 0.00 0.00 48 1018.2
20260509095503 15 97 0.0 4.8 0.00 0.00 0.00 46 1018.2
20260509095003 15 82 0.0 3.2 0.00 0.00 0.00 47 1018.2
20260509094003 15 0 0.0 0.0 0.00 0.00 0.00 46 1018.4
20260509093503 15 0 0.0 0.0 0.00 0.00 0.00 45 1018.3
20260509093003 15 0 0.0 0.0 0.00 0.00 0.00 45 1018.3
20260509092503 15 0 0.0 0.0 0.00 0.00 0.00 43 1018.3
20260509092002 15 57 0.0 1.6 0.00 0.00 0.00 43 1018.3
20260509091503 15 0 0.0 0.0 0.00 0.00 0.00 43 1018.4
20260509091002 15 66 0.0 3.2 0.00 0.00 0.00 42 1018.4
20260509090003 16 78 0.0 3.2 0.00 0.00 0.00 42 1018.4
20260509085503 15 0 0.0 0.0 0.00 0.00 0.00 41 1018.4
20260509085003 15 0 0.0 0.0 0.00 0.00 0.00 41 1018.4
20260509084503 15 0 0.0 0.0 0.00 0.00 0.00 42 1018.4
20260509084002 15 4 0.0 3.2 0.00 0.00 0.00 41 1018.4
20260509083503 15 7 0.0 4.8 0.00 0.00 0.00 41 1018.4
20260509083002 15 20 0.0 1.6 0.00 0.00 0.00 43 1018.4
20260509082504 15 15 1.6 3.2 0.00 0.00 0.00 44 1018.5
20260509082003 15 5 1.6 3.2 0.00 0.00 0.00 44 1018.5
20260509081003 16 321 0.0 1.6 0.00 0.00 0.00 40 1018.5
20260509080004 15 0 0.0 0.0 0.00 0.00 0.00 43 1018.7
20260509075503 15 0 1.6 0.0 0.00 0.00 0.00 42 1018.7
20260509074502 16 226 3.2 6.4 0.00 0.00 0.00 42 1018.8
20260509074003 16 227 4.8 6.4 0.00 0.00 0.00 42 1018.8
20260509073503 16 291 3.2 6.4 0.00 0.00 0.00 41 1018.8
20260509073003 16 247 3.2 8.0 0.00 0.00 0.00 40 1018.9
20260509071504 16 244 3.2 4.8 0.00 0.00 0.00 43 1018.9
20260509071003 16 244 3.2 4.8 0.00 0.00 0.00 44 1018.9
20260509070503 16 256 3.2 4.8 0.00 0.00 0.00 44 1018.9
20260509070004 15 249 1.6 4.8 0.00 0.00 0.00 42 1018.9
20260509065003 16 0 1.6 0.0 0.00 0.00 0.00 46 1019.1
20260509064503 16 0 0.0 0.0 0.00 0.00 0.00 44 1019.0
20260509064003 16 223 1.6 4.8 0.00 0.00 0.00 44 1018.9
20260509063503 16 262 3.2 3.2 0.00 0.00 0.00 43 1019.0
20260509063003 16 262 4.8 3.2 0.00 0.00 0.00 42 1018.9
20260509062503 16 263 4.8 6.4 0.00 0.00 0.00 44 1018.9
20260509062003 16 264 4.8 9.7 0.00 0.00 0.00 45 1019.0
20260509061503 16 266 4.8 6.4 0.00 0.00 0.00 47 1019.1
20260509061003 16 265 3.2 6.4 0.00 0.00 0.00 47 1019.2
20260509060503 16 252 3.2 9.7 0.00 0.00 0.00 47 1019.1
20260509060005 16 249 4.8 4.8 0.00 0.00 0.00 47 1019.0
20260509055503 17 264 4.8 4.8 0.00 0.00 0.00 47 1019.1
20260509055004 17 265 3.2 9.7 0.00 0.00 0.00 47 1019.0
20260509054503 17 273 1.6 6.4 0.00 0.00 0.00 46 1019.1
20260509053503 17 284 0.0 1.6 0.00 0.00 0.00 45 1019.2
20260509053003 17 0 3.2 0.0 0.00 0.00 0.00 43 1019.2
20260509052003 17 280 6.4 6.4 0.00 0.00 0.00 42 1019.1
20260509051503 17 277 6.4 9.7 0.00 0.00 0.00 43 1019.2
20260509050003 17 277 9.7 9.7 0.00 0.00 0.00 44 1019.1
20260509045503 17 280 11.3 11.3 0.00 0.00 0.00 44 1019.1
20260509045003 17 270 9.7 16.1 0.00 0.00 0.00 44 1019.0
20260509043503 17 279 9.7 12.9 0.00 0.00 0.00 48 1019.0
20260509043003 18 276 11.3 11.3 0.00 0.00 0.00 49 1019.0
20260509042503 18 267 9.7 17.7 0.00 0.00 0.00 49 1018.9
20260509042003 18 274 8.0 14.5 0.00 0.00 0.00 49 1018.9
20260509041003 18 279 6.4 11.3 0.00 0.00 0.00 49 1018.9
20260509040503 18 257 3.2 14.5 0.00 0.00 0.00 49 1018.8
20260509040004 18 266 1.6 6.4 0.00 0.00 0.00 49 1018.7
20260509035503 18 0 1.6 0.0 0.00 0.00 0.00 48 1018.7
20260509035003 18 259 4.8 4.8 0.00 0.00 0.00 48 1018.7
20260509034503 18 263 6.4 11.3 0.00 0.00 0.00 48 1018.6
20260509034003 18 252 6.4 8.0 0.00 0.00 0.00 48 1018.7
20260509033503 18 251 8.0 11.3 0.00 0.00 0.00 48 1018.7
20260509033003 19 252 6.4 14.5 0.00 0.00 0.00 48 1018.6
20260509032503 19 271 4.8 16.1 0.00 0.00 0.00 48 1018.5
20260509032004 19 292 4.8 6.4 0.00 0.00 0.00 48 1018.4
20260509031504 19 259 8.0 8.0 0.00 0.00 0.00 48 1018.4
20260509031003 19 254 9.7 12.9 0.00 0.00 0.00 48 1018.4
20260509030503 19 259 8.0 19.3 0.00 0.00 0.00 48 1018.3
20260509025504 20 249 9.7 11.3 0.00 0.00 0.00 47 1018.2
20260509025003 20 239 8.0 19.3 0.00 0.00 0.00 47 1018.1
20260509024503 20 257 9.7 12.9 0.00 0.00 0.00 47 1018.2
20260509024003 20 254 11.3 17.7 0.00 0.00 0.00 47 1018.1
20260509023503 20 245 9.7 17.7 0.00 0.00 0.00 46 1018.0
20260509023003 20 250 9.7 12.9 0.00 0.00 0.00 46 1018.0
20260509022503 21 235 11.3 16.1 0.00 0.00 0.00 45 1018.0
20260509022003 21 243 9.7 17.7 0.00 0.00 0.00 45 1018.0
20260509021503 21 244 9.7 16.1 0.00 0.00 0.00 44 1017.9
20260509021003 21 242 11.3 14.5 0.00 0.00 0.00 44 1017.9
20260509020004 22 256 12.9 19.3 0.00 0.00 0.00 42 1017.8
20260509015503 22 247 11.3 19.3 0.00 0.00 0.00 42 1017.9
20260509015003 23 258 8.0 17.7 0.00 0.00 0.00 42 1017.8
20260509014503 23 269 9.7 12.9 0.00 0.00 0.00 42 1017.8
20260509014003 23 302 12.9 14.5 0.00 0.00 0.00 40 1017.8
20260509013003 23 280 12.9 17.7 0.00 0.00 0.00 39 1017.7
20260509012503 23 292 14.5 17.7 0.00 0.00 0.00 39 1017.6
20260509012004 23 289 14.5 17.7 0.00 0.00 0.00 39 1017.6
20260509011505 23 277 14.5 27.4 0.00 0.00 0.00 39 1017.7
20260509011004 23 294 16.1 20.9 0.00 0.00 0.00 40 1017.7
20260509010504 23 282 14.5 24.1 0.00 0.00 0.00 39 1017.7
20260509010003 23 270 11.3 29.0 0.00 0.00 0.00 39 1017.7
20260509005503 23 284 12.9 17.7 0.00 0.00 0.00 40 1017.9
20260509003503 23 314 16.1 25.7 0.00 0.00 0.00 41 1017.9
20260509003003 23 315 17.7 29.0 0.00 0.00 0.00 41 1017.9
20260509002503 23 310 19.3 20.9 0.00 0.00 0.00 41 1017.9
20260509002003 23 303 19.3 30.6 0.00 0.00 0.00 40 1017.8
20260509001003 23 318 17.7 27.4 0.00 0.00 0.00 41 1017.9
20260509000503 23 323 17.7 30.6 0.00 0.00 0.00 42 1017.9
20260509000004 23 310 19.3 22.5 0.00 0.00 0.00 42 1017.9
20260508235503 23 317 19.3 24.1 0.00 0.00 0.00 42 1017.9
20260508235003 23 310 19.3 29.0 0.00 0.00 0.00 41 1017.9
20260508234504 23 315 19.3 27.4 0.00 0.00 0.00 42 1017.9
20260508234003 23 321 17.7 32.2 0.00 0.00 0.00 41 1018.1
20260508233503 23 310 19.3 30.6 0.00 0.00 0.00 43 1018.0
20260508232503 23 315 22.5 30.6 0.00 0.00 0.00 42 1018.1
20260508232004 23 312 20.9 32.2 0.00 0.00 0.00 42 1018.1
20260508231503 23 310 19.3 30.6 0.00 0.00 0.00 41 1018.3
20260508231003 23 314 19.3 27.4 0.00 0.00 0.00 42 1018.3
20260508230504 23 320 19.3 35.4 0.00 0.00 0.00 42 1018.4
20260508230003 23 297 20.9 24.1 0.00 0.00 0.00 42 1018.4
20260508225504 23 299 22.5 29.0 0.00 0.00 0.00 43 1018.3
20260508224503 23 319 19.3 32.2 0.00 0.00 0.00 43 1018.4
20260508224003 23 318 19.3 30.6 0.00 0.00 0.00 45 1018.4
20260508223504 23 311 19.3 29.0 0.00 0.00 0.00 45 1018.4
20260508223003 22 310 19.3 25.7 0.00 0.00 0.00 46 1018.5
20260508222504 23 320 17.7 29.0 0.00 0.00 0.00 46 1018.4
20260508222003 23 318 17.7 30.6 0.00 0.00 0.00 45 1018.5
20260508221504 23 309 16.1 24.1 0.00 0.00 0.00 46 1018.7
20260508221004 23 311 12.9 30.6 0.00 0.00 0.00 46 1018.7
20260508220503 22 324 16.1 17.7 0.00 0.00 0.00 49 1019.0
20260508220004 22 312 19.3 27.4 0.00 0.00 0.00 48 1018.9
20260508215503 22 315 20.9 25.7 0.00 0.00 0.00 48 1018.8